This demonstration page uses our WeatherBlox Daily Observations layout. Learn more.

Left ArrowRight Arrow

34.16533, -84.80231

Hourly Observations for May 25, 2017

Temp ( °F °C ) Dew Point ( °F °C ) Humidity (%) Winds ( mph kmh ) Pressure ( in mb ) Visibility ( mi km ) Precip ( " mm )
12:53 am 00:53 Cloudy 59 15 58 14.4 96 96 Calm 29.59 1002 10 16 0.00 0.00
1:53 am 01:53 Cloudy 58 14.4 58 14.4 100 100 Calm 29.59 1002 10 16 0.00 0.03
2:23 am 02:23 Cloudy 58 14.4 58 14.4 100 100 VRB 3 6 29.62 1003 10 16 0.00 0.00
2:38 am 02:38 Cloudy 58 14.4 58 14.4 100 100 VRB 3 6 29.62 1003 10 16 0.00 0.00
2:53 am 02:53 Cloudy 58 14.4 58 14.4 100 100 Calm 29.60 1002 10 16 0.00 0.00
3:02 am 03:02 Cloudy 58 14.4 58 14.4 100 100 Calm 29.62 1003 10 16 0.00 0.00
3:11 am 03:11 Cloudy 58 14.4 57 13.9 97 97 Calm 29.62 1003 10 16 0.00 0.00
3:53 am 03:53 Cloudy 57 13.9 56 13.3 96 96 Calm 29.61 1003 10 16 0.00 0.03
4:05 am 04:05 Cloudy 57 13.9 56 13.3 96 96 Calm 29.65 1004 10 16 0.00 0.00
4:22 am 04:22 Cloudy 57 13.9 56 13.3 96 96 Calm 29.65 1004 10 16 0.00 0.00
4:53 am 04:53 Cloudy 57 13.9 56 13.3 96 96 Calm 29.62 1003 10 16 0.00 0.00
5:42 am 05:42 Cloudy 57 13.9 56 13.3 96 96 VRB 3 6 29.65 1004 10 16 0.00 0.00
5:53 am 05:53 Cloudy 57 13.9 56 13.3 96 96 Calm 29.64 1004 10 16 0.00 0.00
6:32 am 06:32 Cloudy 57 13.9 56 13.3 96 96 Calm 29.68 1005 10 16 0.00 0.00
6:53 am 06:53 Cloudy 56 13.3 55 12.8 97 97 VRB 3 6 29.67 1005 10 16 0.00 0.00
7:08 am 07:08 Cloudy 56 13.3 55 12.8 97 97 VRB 3 6 29.71 1006 10 16 0.00 0.00
7:45 am 07:45 Cloudy 56 13.3 55 12.8 97 97 VRB 3 6 29.71 1006 10 16 0.00 0.00
7:53 am 07:53 Cloudy 57 13.9 55 12.8 93 93 VRB 3 6 29.70 1006 10 16 0.00 0.00
8:13 am 08:13 Cloudy 57 13.9 55 12.8 93 93 VRB 3 6 29.74 1007 10 16 0.00 0.00
8:53 am 08:53 Cloudy 58 14.4 55 12.8 90 90 VRB 6 9 29.70 1006 10 16 0.00 0.00
9:05 am 09:05 Mostly Cloudy 59 15 56 13.3 90 90 undefined N/A 29.74 1007 10 16 0.00 0.00
9:16 am 09:16 Mostly Sunny 60 15.6 55 12.8 84 84 VRB 6 9 29.74 1007 10 16 0.00 0.00
9:53 am 09:53 Mostly Cloudy 61 16.1 55 12.8 81 81 VRB 3 6 29.73 1007 10 16 0.00 0.00
10:53 am 10:53 Mostly Cloudy 63 17.2 55 12.8 76 76 VRB 5 7 29.75 1008 10 16 0.00 0.00
11:42 am 11:42 Mostly Cloudy 63 17.2 53 11.7 70 70 VRB 5 7 29.80 1009 10 16 0.00 0.00
11:53 am 11:53 Mostly Cloudy 65 18.3 54 12.2 68 68 Calm 29.77 1008 10 16 0.00 0.00
12:53 pm 12:53 Mostly Cloudy 66 18.9 53 11.7 63 63 VRB 5 7 29.77 1008 10 16 0.00 0.00
1:53 pm 13:53 Mostly Cloudy 69 20.6 52 11.1 55 55 VRB 5 7 29.78 1008 10 16 0.00 0.00
2:53 pm 14:53 Mostly Cloudy 70 21.1 55 12.8 59 59 VRB 3 6 29.78 1008 10 16 0.00 0.00
4:53 pm 16:53 Sunny 72 22.2 52 11.1 50 50 VRB 5 7 29.77 1008 10 16 0.00 0.00
5:53 pm 17:53 Mostly Sunny 72 22.2 52 11.1 50 50 Calm 29.78 1009 10 16 0.00 0.00
6:53 pm 18:53 Mostly Sunny 71 21.7 51 10.6 49 49 VRB 3 6 29.80 1009 10 16 0.00 0.00
7:53 pm 19:53 Partly Cloudy 68 20 52 11.1 57 57 VRB 3 6 29.81 1010 10 16 0.00 0.00
8:53 pm 20:53 Clear 63 17.2 55 12.8 76 76 Calm 29.83 1010 10 16 0.00 0.00
9:53 pm 21:53 Clear 59 15 56 13.3 90 90 Calm 29.85 1011 10 16 0.00 0.00
10:53 pm 22:53 Clear 57 13.9 56 13.3 96 96 Calm 29.88 1012 10 16 0.00 0.00
11:53 pm 23:53 Clear 57 13.9 55 12.8 93 93 Calm 29.91 1013 10 16 0.00 0.00

Powered by AerisWeather